STARLINK-1478, 45755

Orbit data source: Space-Track

STARLINK-1478, 45755 is a payload satellite owned by SpaceX/Seattle (US) in LEO that was launched on Sat, 13 Jun 2020 UTC via an FALCON 9 launch vehicle from the Air Force Eastern Test Range (AFETR). Payload-class satellites include a variety of spacecraft equipped with specific instruments for various scientific and technological missions. These include communications satellites like Starlink; space stations such as the ISS; scientific satellites like the Hubble; Earth observation satellites from companies like Planet Labs, Umbra, and HawkEye 360; GPS; miniature CubeSats for education and research; and military/defense satellites.

Not visible in the next 10 days
Identifier
45755, 2020-038AB
Orbit
LEO
Country
Flag of USUS
Related business
Manufacturer
SpaceX/Seattle
Mission
Partially operational Commercial Communications
Bus & Motor
STARLINK, Unknown motor
Mass
260 kg wet, ~248 kg dry
Launch date (UTC)
2020-06-13 (6 years ago)
Launch vehicle
FALCON 9
Launch site
Air Force Eastern Test Range (AFETR)
Object type
Payload
Rocket body
Debris
Shape & HBR
Box + 1 Pan, 10.1 m
Radar Cross Section
13.562 m², Large (>1 m²)

Expand to show TLE details & history
Last TLE update: 2 days ago

TLE from 2 days ago
0 STARLINK-1478
1 45755U 20038AB  26171.50003471  .00290863  00000-0  21378-2 0  9997
2 45755  53.0439  54.5845 0001219  93.3279 285.1654 15.71692773  5744
Epoch: 2026-06-20T12:00Z
TLE epoch observation values (Epoch: 2026-06-20T12:00:02.998Z)
Latitude
14.68392°
Longitude
-22.83611°
Altitude
354.019 km
Speed
7.699 km/s
True Right ascension
04h 23m 33s
True Declination
14° 35' 41"
Sunlit
Object was in daylight at epoch
Visualization orbit readout
Latitude
Unknown
Longitude
Unknown
Altitude
Unknown
Speed
Unknown
Apparent Right ascension
Unknown
Apparent Declination
Unknown
Sunlit
N/A
Visualization observer readout
Local Sidereal Time
21:45:18
Azimuth
Unknown
Elevation
Unknown
Doppler factor
Unknown
Orbital elements
Apogee altitude
355.159 km
Perigee altitude
353.518 km
Semi-major axis
6,732.476 km
Eccentricity
0.00012
Inclination
53.0439°
RAAN
54.5845°
Arg. of periapsis
93.3279°
True anomaly
285.15192°
Mean anomaly
285.1654°
Eccentric anomaly
285.15866°
Mean motion
3.92899 °/min
Orbital period
91.63 mins
BSTAR
0.0021378
Loading maneuver chart data...
Computing Atmospheric mass density...

Documentation

Showing up to 5 results
|